USGS - science for a changing world

Kansas Water Science Center

Jump to content

Jump back to navigation

Current Streamflow Conditions

Welcome to the U.S. Geological Survey (USGS) Web page for the water resources of Kansas. Here you'll find information on Kansas's rivers and streams. You'll also find information about groundwater, water quality, and many other topics. The USGS operates the most extensive satellite network of stream-gaging stations in the state, many of which form the backbone of flood-warning systems.

The Kansas Water Science Center provides current ("real-time") stream stage in Kansas and streamflow, water-quality, and groundwater levels for over 200 sites.
The USGS provides National ("real-time") stream stage and streamflow, water-quality, and groundwater levels for over 7000 sites.

Of Current Interest

Scientific Investigations Report: Sediment oxygen demand in eastern Kansas streams, 2014 and 2015

Open-File Report: Relations between continuous real-time physical properties and discrete water-quality constituents in the Little Arkansas River, south-central Kansas, 1998-2014

Scientific Investigations Report: Effects of aquifer storage and recovery activities on water quality in the Little Arkansas River and Equus Beds Aquifer, south-central Kansas, 2011-14

Fact Sheet: Effect of May through July 2015 Storm Events on Suspended Sediment Loads, Sediment Trapping Efficiency, and Storage Capacity of John Redmond Reservoir, East-Central Kansas

Scientific Investigations Report: Effect of May through July 2015 Storm Events on Suspended Sediment Loads, Sediment Trapping Efficiency, and Storage Capacity of John Redmond Reservoir, East-Central Kansas

USGS WaterAlert Service Turn Around Don't Drown

Now you can receive instant, customized updates about water conditions by subscribing to WaterAlert, a new service from the U.S. Geological Survey. WaterAlert allows you to receive daily or hourly updates about current conditions in rivers, lakes and groundwater when they match conditions of concern to you.

Kansas Earthquakes - Last 30 days

  1. 2.06 18km E of Anthony, Kansas 2016-10-25 12:23:44 CDT
  2. 1.9 18km E of Anthony, Kansas 2016-10-25 12:23:21 CDT
  3. 2.6 17km E of Anthony, Kansas 2016-10-25 10:59:08 CDT
  4. 1.71 9km SSE of Anthony, Kansas 2016-10-25 10:47:00 CDT
  5. 1.74 15km W of Caldwell, Kansas 2016-10-25 08:37:09 CDT
  6. 2.8 16km E of Anthony, Kansas 2016-10-24 08:50:13 CDT
  7. 3.5 18km E of Anthony, Kansas 2016-10-24 08:25:54 CDT
  8. 2.19 16km S of Anthony, Kansas 2016-10-22 21:51:30 CDT
  9. 1.66 11km ESE of Caldwell, Kansas 2016-10-22 02:51:10 CDT
  10. 3.6 13km SSW of Caldwell, Kansas 2016-10-20 07:14:08 CDT
  11. 1.81 20km ENE of Anthony, Kansas 2016-10-17 20:28:56 CDT
  12. 2.18 5km WNW of Caldwell, Kansas 2016-10-17 04:09:54 CDT
  13. 1.77 14km SE of Anthony, Kansas 2016-10-15 02:13:48 CDT
  14. 2.5 19km NW of Medford, Oklahoma 2016-10-14 17:52:48 CDT
  15. 1.8 2km E of Anthony, Kansas 2016-10-14 04:37:15 CDT
  16. 1.67 4km ENE of Harper, Kansas 2016-10-12 08:50:06 CDT
  17. 1.95 11km WNW of Caldwell, Kansas 2016-10-07 13:42:43 CDT
  18. 2.31 14km SW of Caldwell, Kansas 2016-10-07 11:09:44 CDT
  19. 1.98 17km NW of Caldwell, Kansas 2016-10-03 17:30:18 CDT
  20. 2.7 10km ESE of Caldwell, Kansas 2016-10-03 07:19:51 CDT
  21. 2.15 20km S of Anthony, Kansas 2016-09-30 08:42:26 CDT
  22. 1.74 15km SSE of Anthony, Kansas 2016-09-28 21:28:30 CDT
  23. 1.6 6km ESE of Anthony, Kansas 2016-09-28 03:31:13 CDT
  24. 2 1km SE of Anthony, Kansas 2016-09-27 18:47:30 CDT
  25. 1.93 15km SE of Anthony, Kansas 2016-09-26 17:55:36 CDT

Highlighted Publications

The Kansas Water Science Center produces publications about water resources.   Search our publications

07156900: Flow=15cfs,Stage=2.06ft,Floodstage=5ft,2016-10-25 19:00,Low,Cimarron River near Forgan, OK 07144910: Flow=0.56cfs,Stage=2.21ft,Floodstage=9ft,2016-10-25 20:00,Low,SF NINNESCAH R NR PRATT, KS 06871500: Flow=16cfs,Stage=3.67ft,Floodstage=9ft,2016-10-25 19:45,>90,BOW C NR STOCKTON, KS 06871000: Flow=32cfs,Stage=3.52ft,Floodstage=11ft,2016-10-25 19:30,>90,NF SOLOMON R AT GLADE, KS 06867000: Flow=105cfs,Stage=6.47ft,Floodstage=18ft,2016-10-25 19:30,>90,SALINE R NR RUSSELL, KS 07142300: Flow=0.00cfs,Stage=2.91ft,Floodstage=9ft,2016-10-25 19:00,<10,RATTLESNAKE C NR MACKSVILLE, KS 06824000: Flow=6.1cfs,Stage=0.57ft,2016-10-25 18:45,<10,Rock Creek at Parks, Nebr. 07183500: Flow=1500cfs,Stage=8.72ft,Floodstage=21ft,2016-10-25 19:00,76-90,NEOSHO R NR PARSONS, KS 07183000: Flow=1200cfs,Stage=7.79ft,Floodstage=15ft,2016-10-25 19:00,76-90,NEOSHO R NR IOLA, KS 07182510: Flow=1270cfs,Stage=8.17ft,Floodstage=27ft,2016-10-25 19:15,76-90,NEOSHO R AT BURLINGTON, KS 07182250: Flow=351cfs,Stage=3.97ft,Floodstage=32ft,2016-10-25 20:00,76-90,COTTONWOOD R NR PLYMOUTH, KS 07180500: Flow=36cfs,Stage=4.52ft,2016-10-25 19:15,76-90,CEDAR C NR CEDAR POINT, KS 07180400: Flow=134cfs,Stage=3.44ft,Floodstage=22ft,2016-10-25 20:00,76-90,COTTONWOOD R NR FLORENCE, KS 07172000: Flow=71cfs,Stage=1.89ft,2016-10-25 20:00,76-90,CANEY R NR ELGIN, KS 07170500: Flow=783cfs,Stage=4.31ft,Floodstage=30ft,2016-10-25 20:00,76-90,VERDIGRIS R AT INDEPENDENCE, KS 07169800: Flow=52cfs,Stage=3.19ft,2016-10-25 19:00,76-90,ELK R AT ELK FALLS, KS 07169500: Flow=365cfs,Stage=4.37ft,Floodstage=17ft,2016-10-25 19:00,76-90,FALL R AT FREDONIA, KS 07167500: Flow=20cfs,Stage=2.37ft,2016-10-25 19:15,76-90,OTTER C AT CLIMAX, KS 07166500: Flow=201cfs,Stage=3.84ft,Floodstage=19ft,2016-10-25 19:45,76-90,VERDIGRIS R NR ALTOONA, KS 07151500: Flow=190cfs,Stage=2.35ft,Floodstage=10ft,2016-10-25 20:00,76-90,CHIKASKIA R NR CORBIN, KS 07147800: Flow=492cfs,Stage=2.36ft,Floodstage=18ft,2016-10-25 20:00,76-90,WALNUT R AT WINFIELD, KS 07147070: Flow=86cfs,Stage=2.21ft,2016-10-25 19:30,76-90,WHITEWATER R AT TOWANDA, KS 07145700: Flow=12cfs,Stage=4.08ft,Floodstage=19ft,2016-10-25 20:00,76-90,SLATE C AT WELLINGTON, KS 07144200: Flow=94cfs,Stage=1.44ft,2016-10-25 19:00,76-90,L ARKANSAS R AT VALLEY CENTER, KS 06917500: Flow=51cfs,Stage=7.97ft,Floodstage=38ft,2016-10-25 19:30,76-90,MARMATON R NR FORT SCOTT, KS 06917000: Flow=58cfs,Stage=3.78ft,Floodstage=22ft,2016-10-25 19:15,76-90,L OSAGE R AT FULTON, KS 06911900: Flow=21cfs,Stage=8.11ft,Floodstage=19ft,2016-10-25 19:00,76-90,DRAGOON C NR BURLINGAME, KS 06889500: Flow=67cfs,Stage=0.63ft,Floodstage=29ft,2016-10-25 20:00,76-90,SOLDIER C NR TOPEKA, KS 06889200: Flow=35cfs,Stage=7.17ft,Floodstage=26ft,2016-10-25 19:30,76-90,SOLDIER C NR DELIA, KS 06888000: Flow=39cfs,Stage=4.15ft,2016-10-25 19:45,76-90,VERMILLION C NR WAMEGO, KS 06878000: Flow=35cfs,Stage=4.78ft,Floodstage=19ft,2016-10-25 19:45,76-90,CHAPMAN C NR CHAPMAN, KS 06876900: Flow=189cfs,Stage=4.29ft,Floodstage=24ft,2016-10-25 19:30,76-90,SOLOMON R AT NILES, KS 06876700: Flow=19cfs,Stage=4.84ft,Floodstage=18ft,2016-10-25 19:45,76-90,SALT C NR ADA, KS 06875900: Flow=62cfs,Stage=7.99ft,Floodstage=21ft,2016-10-25 19:30,76-90,SOLOMON R NR GLEN ELDER, KS 06874000: Flow=36cfs,Stage=4.07ft,Floodstage=14ft,2016-10-25 19:30,76-90,SF SOLOMON R AT OSBORNE, KS 06873000: Flow=45cfs,Stage=1.92ft,Floodstage=8.5ft,2016-10-25 19:15,76-90,SF SOLOMON R AB WEBSTER RE, KS 06853800: Flow=10cfs,Stage=1.76ft,Floodstage=16ft,2016-10-25 19:45,76-90,WHITE ROCK C NR BURR OAK, KS 06847900: Flow=4.7cfs,Stage=3.61ft,Floodstage=11ft,2016-10-25 19:45,76-90,PRAIRIE DOG C AB KEITH SEBELIUS LAKE, KS 07157500: Flow=4.8cfs,Stage=2.33ft,Floodstage=6.5ft,2016-10-25 19:30,10-24,CROOKED C NR ENGLEWOOD, KS 07142575: Flow=3.4cfs,Stage=11.44ft,Floodstage=17ft,2016-10-25 19:30,10-24,RATTLESNAKE C NR ZENITH, KS 06884025: Flow=92cfs,Stage=1.80ft,Floodstage=19ft,2016-10-25 20:00,10-24,Little Blue River at Hollenberg, KS 06868200: Flow=6.2cfs,Stage=2.73ft,2016-10-25 19:45,10-24,SALINE R AT WILSON DAM, KS 06861000: Flow=0.04cfs,Stage=0.45ft,Floodstage=7ft,2016-10-25 19:30,10-24,SMOKY HILL R NR ARNOLD, KS 06823500: Flow=2.4cfs,Stage=1.02ft,Floodstage=11ft,2016-10-25 18:45,10-24,Buffalo Creek near Haigler, Nebr. 06821500: Flow=0.34cfs,Stage=5.84ft,Floodstage=12ft,2016-10-25 17:30,10-24,Arikaree River at Haigler, Nebr. 07188000: Flow=472cfs,Stage=5.88ft,Floodstage=20ft,2016-10-25 19:00,25-75,Spring River near Quapaw, OK 07186000: Flow=198cfs,Stage=1.61ft,Floodstage=19ft,2016-10-25 19:30,25-75,Spring River near Waco, MO 07185000: Flow=1960cfs,Stage=3.91ft,Floodstage=15ft,2016-10-25 19:30,25-75,Neosho River near Commerce, OK 07184000: Flow=10cfs,Stage=1.25ft,Floodstage=12ft,2016-10-25 19:45,25-75,LIGHTNING C NR MCCUNE, KS 07179795: Flow=8.9cfs,Stage=4.89ft,2016-10-25 19:30,25-75,N COTTONWOOD R BL MARION LK, KS 07179730: Flow=59cfs,Stage=3.23ft,Floodstage=26ft,2016-10-25 19:15,25-75,NEOSHO R NR AMERICUS, KS 07179500: Flow=6.4cfs,Stage=7.95ft,2016-10-25 20:00,25-75,NEOSHO R AT COUNCIL GROVE, KS 07149000: Flow=51cfs,Stage=0.46ft,Floodstage=10ft,2016-10-25 19:30,25-75,MEDICINE LODGE R NR KIOWA, KS 07146500: Flow=1220cfs,Stage=4.08ft,Floodstage=11ft,2016-10-25 20:00,25-75,ARKANSAS R AT ARKANSAS CITY, KS 07145500: Flow=274cfs,Stage=2.63ft,Floodstage=17ft,2016-10-25 20:00,25-75,NINNESCAH R NR PECK, KS 07145200: Flow=123cfs,Stage=3.75ft,Floodstage=8ft,2016-10-25 20:00,25-75,SF NINNESCAH R NR MURDOCK, KS 07144780: Flow=58cfs,Stage=6.03ft,2016-10-25 19:30,25-75,NF NINNESCAH R AB CHENEY RE, KS 07144550: Flow=476cfs,Stage=1.71ft,Floodstage=12ft,2016-10-25 20:00,25-75,ARKANSAS R AT DERBY, KS 07144300: Flow=437cfs,Stage=3.72ft,2016-10-25 19:45,25-75,ARKANSAS R AT WICHITA, KS 07143665: Flow=16cfs,Stage=0.43ft,Floodstage=22ft,2016-10-25 19:15,25-75,L ARKANSAS R AT ALTA MILLS, KS 07143330: Flow=199cfs,Stage=2.43ft,Floodstage=10ft,2016-10-25 19:30,25-75,ARKANSAS R NR HUTCHINSON, KS 07143300: Flow=7.3cfs,Stage=4.29ft,Floodstage=18ft,2016-10-25 19:30,25-75,COW C NR LYONS, KS 07141300: Flow=13cfs,Stage=1.20ft,Floodstage=12ft,2016-10-25 19:30,25-75,ARKANSAS R AT GREAT BEND, KS 07138000: Flow=112cfs,Stage=4.34ft,Floodstage=10ft,2016-10-25 19:15,25-75,ARKANSAS R AT SYRACUSE, KS 07137500: Flow=122cfs,Stage=2.98ft,Floodstage=8ft,2016-10-25 19:15,25-75,ARKANSAS R NR COOLIDGE, KS 07137000: Flow=0.42cfs,Stage=10.06ft,2016-10-25 19:45,25-75,FRONTIER DITCH NR COOLIDGE, KS 06916600: Flow=278cfs,Stage=4.63ft,Floodstage=27ft,2016-10-25 19:45,25-75,MARAIS DES CYGNES R NR KS-MO ST LINE, KS 06915800: Flow=228cfs,Stage=4.69ft,Floodstage=25ft,2016-10-25 19:15,25-75,MARAIS DES CYGNES R AT LA CYGNE, KS 06915000: Flow=10cfs,Stage=2.05ft,2016-10-25 19:30,25-75,BIG BULL C NR HILLSDALE, KS 06913500: Flow=55cfs,Stage=3.68ft,Floodstage=31ft,2016-10-25 19:30,25-75,MARAIS DES CYGNES R NR OTTAWA, KS 06913000: Flow=76cfs,Stage=1.28ft,Floodstage=20ft,2016-10-25 19:30,25-75,MARAIS DES CYGNES R NR POMONA, KS 06912500: Flow=20cfs,Stage=2.85ft,2016-10-25 19:45,25-75,HUNDRED AND TEN MILE C NR QUENEMO, KS 06911000: Flow=24cfs,Stage=2.28ft,2016-10-25 19:45,25-75,MARAIS DES CYGNES R AT MELVERN, KS 06910800: Flow=20cfs,Stage=2.45ft,Floodstage=19ft,2016-10-25 19:45,25-75,MARAIS DES CYGNES R NR READING, KS 06893500: Flow=17cfs,Stage=4.22ft,Floodstage=34ft,2016-10-25 19:45,25-75,Blue River at Kansas City, MO 06893300: Flow=12cfs,Stage=5.61ft,Floodstage=14ft,2016-10-25 19:15,25-75,INDIAN C AT OVERLAND PARK, KS 06893080: Flow=2.2cfs,Stage=4.09ft,Floodstage=16ft,2016-10-25 19:45,25-75,BLUE R NR STANLEY, KS 06893000: Flow=47700cfs,Stage=10.84ft,Floodstage=32ft,2016-10-25 19:30,25-75,Missouri River at Kansas City, MO 06892350: Flow=2600cfs,Stage=5.46ft,Floodstage=26ft,2016-10-25 19:45,25-75,KANSAS R AT DESOTO, KS 06892000: Flow=41cfs,Stage=2.73ft,Floodstage=23ft,2016-10-25 19:30,25-75,STRANGER C NR TONGANOXIE, KS 06891500: Flow=12cfs,Stage=4.22ft,Floodstage=23ft,2016-10-25 19:45,25-75,WAKARUSA R NR LAWRENCE, KS 06891000: Flow=2700cfs,Stage=2.85ft,Floodstage=17ft,2016-10-25 19:30,25-75,KANSAS R AT LECOMPTON, KS 06890900: Flow=208cfs,Stage=28.36ft,2016-10-25 19:45,25-75,DELAWARE R AT PERRY, KS 06890100: Flow=60cfs,Stage=2.62ft,Floodstage=27ft,2016-10-25 19:45,25-75,DELAWARE R NR MUSCOTAH, KS 06889000: Flow=2500cfs,Stage=5.75ft,Floodstage=26ft,2016-10-25 19:30,25-75,KANSAS R AT TOPEKA, KS 06888500: Flow=59cfs,Stage=2.80ft,Floodstage=21ft,2016-10-25 19:45,25-75,MILL C NR PAXICO, KS 06888350: Flow=2100cfs,Stage=6.57ft,Floodstage=20ft,2016-10-25 19:30,25-75,KANSAS R NR BELVUE, KS 06887000: Flow=483cfs,Stage=1.53ft,Floodstage=19ft,2016-10-25 19:00,25-75,BIG BLUE R NR MANHATTAN, KS 06885500: Flow=29cfs,Stage=3.31ft,Floodstage=19ft,2016-10-25 19:30,25-75,BLACK VERMILLION R NR FRANKFORT, KS 06884400: Flow=149cfs,Stage=3.74ft,Floodstage=21ft,2016-10-25 19:30,25-75,L BLUE R NR BARNES, KS 06884200: Flow=17cfs,Stage=1.80ft,Floodstage=18ft,2016-10-25 19:45,25-75,MILL C AT WASHINGTON, KS 06882510: Flow=239cfs,Stage=11.90ft,Floodstage=35ft,2016-10-25 19:30,25-75,BIG BLUE R AT MARYSVILLE, KS 06882000: Flow=210cfs,Stage=3.81ft,Floodstage=20ft,2016-10-25 19:00,25-75,Big Blue River at Barneston, Nebr. 06879100: Flow=1150cfs,Stage=6.26ft,Floodstage=21ft,2016-10-25 19:30,25-75,KANSAS R AT FORT RILEY, KS 06877600: Flow=548cfs,Stage=7.14ft,Floodstage=26ft,2016-10-25 19:45,25-75,SMOKY HILL R AT ENTERPRISE, KS 06876000: Flow=64cfs,Stage=3.04ft,2016-10-25 19:45,25-75,SOLOMON R AT BELOIT, KS 06873460: Flow=8.0cfs,Stage=4.56ft,Floodstage=12ft,2016-10-25 19:30,25-75,SF SOLOMON R AT WOODSTON, KS 06872500: Flow=31cfs,Stage=3.87ft,Floodstage=15ft,2016-10-25 19:30,25-75,NF SOLOMON R AT PORTIS, KS 06869500: Flow=68cfs,Stage=5.86ft,Floodstage=25ft,2016-10-25 19:30,25-75,SALINE R AT TESCOTT, KS 06866900: Flow=1.3cfs,Stage=2.28ft,Floodstage=13ft,2016-10-25 19:00,25-75,SALINE R NR WAKEENEY, KS 06866500: Flow=152cfs,Stage=4.54ft,Floodstage=20ft,2016-10-25 19:45,25-75,SMOKY HILL R NR MENTOR, KS 06866000: Flow=139cfs,Stage=7.14ft,Floodstage=21ft,2016-10-25 19:30,25-75,SMOKY HILL R AT LINDSBORG, KS 06865500: Flow=108cfs,Stage=3.56ft,2016-10-25 19:30,25-75,SMOKY HILL R NR LANGLEY, KS 06864500: Flow=37cfs,Stage=1.44ft,Floodstage=20ft,2016-10-25 20:00,25-75,SMOKY HILL R AT ELLSWORTH, KS 06864000: Flow=14cfs,Stage=3.41ft,Floodstage=18ft,2016-10-25 19:30,25-75,SMOKY HILL R NR RUSSELL, KS 06863500: Flow=2.3cfs,Stage=4.91ft,Floodstage=26ft,2016-10-25 19:30,25-75,BIG C NR HAYS, KS 06862700: Flow=0.40cfs,Stage=3.32ft,2016-10-25 19:30,25-75,SMOKY HILL R NR SCHOENCHEN, KS 06857100: Flow=266cfs,Stage=5.49ft,2016-10-25 19:30,25-75,REPUBLICAN R AT JUNCTION CITY, KS 06856600: Flow=221cfs,Stage=6.91ft,Floodstage=15ft,2016-10-25 19:30,25-75,REPUBLICAN R AT CLAY CENTER, KS 06856000: Flow=139cfs,Stage=4.87ft,Floodstage=15ft,2016-10-25 19:30,25-75,REPUBLICAN R AT CONCORDIA, KS 06854500: Flow=98cfs,Stage=0.76ft,Floodstage=10ft,2016-10-25 19:15,25-75,REPUBLICAN R AT SCANDIA, KS 06853500: Flow=79cfs,Stage=1.85ft,Floodstage=11ft,2016-10-25 19:30,25-75,REPUBLICAN R NR HARDY, NE 06818000: Flow=44100cfs,Stage=8.34ft,Floodstage=17ft,2016-10-25 19:30,25-75,Missouri River at St. Joseph, MO 06815000: Flow=145cfs,Stage=4.27ft,Floodstage=27ft,2016-10-25 19:45,25-75,Big Nemaha River at Falls City, Nebr. 06814000: Flow=9.8cfs,Stage=1.23ft,Floodstage=21ft,2016-10-25 19:45,25-75,TURKEY C NR SENECA, KS 06813500: Flow=42400cfs,Stage=9.21ft,Floodstage=17ft,2016-10-25 19:30,25-75,Missouri River at Rulo, NE 385520094420000: Flow=15cfs,2013-07-17 23:45,Not ranked,INDIAN C AT COLLEGE BLVD, JOHNSON CO, KS 375350097262800: Stage=5.17ft,2016-10-25 19:00,Not ranked,L ARKANSAS R UPSTREAM OF ASR FAC NR SEDGWICK, KS 07187600: Flow=520cfs,Stage=3.25ft,Floodstage=14ft,2016-10-25 19:30,Not ranked,SPRING R NR BAXTER SPRINGS, KS 07186055: Flow=41cfs,Stage=5.71ft,2016-10-25 19:45,Not ranked,COW C NR SCAMMON, KS 07185090: Flow=7.5cfs,Stage=8.50ft,2016-10-25 19:15,Not ranked,Tar Creek near Commerce, OK 07184500: Flow=19cfs,Stage=5.88ft,2016-10-25 19:00,Not ranked,LABETTE C NR OSWEGO, KS 07183300: Stage=12.84ft,Floodstage=29ft,2016-10-25 19:15,Not ranked,NEOSHO R NR ERIE, KS 07182395: Stage=-0.57ft,2016-10-25 20:00,Not ranked,NEOSHO R AT HARTFORD, KS 07182390: Flow=463cfs,Stage=1.69ft,Floodstage=22ft,2016-10-25 19:30,Not ranked,NEOSHO R AT NEOSHO RAPIDS, KS 07182260: Flow=349cfs,Stage=2.75ft,Floodstage=20ft,2016-10-25 19:30,Not ranked,COTTONWOOD R AT EMPORIA, KS 07182200: Flow=56cfs,Stage=7.12ft,2016-10-25 19:30,Not ranked,SF COTTONWOOD R NR BAZAAR, KS 07180200: Stage=5.32ft,2016-10-25 19:30,Not ranked,COTTONWOOD R AT MARION, KS 07179785: Stage=9.83ft,2016-10-25 19:30,Not ranked,NF COTTONWOOD R NR DURHAM, KS 07179750: Flow=58cfs,Stage=3.82ft,2016-10-25 19:30,Not ranked,NEOSHO R AT BURLINGAME RD NR EMPORIA, KS 07179710: Stage=11.35ft,2016-10-25 19:00,Not ranked,NEOSHO R NR DUNLAP, KS 07179700: Flow=14cfs,Stage=9.44ft,2016-10-25 19:15,Not ranked,ROCK C NR DUNLAP, KS 07179300: Flow=2.0cfs,Stage=7.85ft,2016-10-25 19:45,Not ranked,NEOSHO R NR PARKERVILLE, KS 07170990: Flow=985cfs,Stage=4.88ft,2016-10-25 19:45,Not ranked,VERDIGRIS R AT COFFEYVILLE, KS 07170700: Stage=3.08ft,2016-10-25 19:00,Not ranked,BIG HILL C NR CHERRYVALE, KS 07165750: Flow=58cfs,Stage=7.36ft,2016-10-25 20:00,Not ranked,VERDIGRIS R NR VIRGIL, KS 07157940: Flow=0.37cfs,Stage=5.19ft,2016-10-25 20:00,Not ranked,BLUFF C NR BUTTERMILK, KS 07157740: Flow=1.7cfs,Stage=6.97ft,2016-10-25 19:30,Not ranked,CIMARRON R NR BUTTERMILK, KS 07148111: Flow=109cfs,Stage=5.02ft,2016-10-25 19:30,Not ranked,GROUSE C NR SILVERDALE, KS 07147900: Stage=3.23ft,Floodstage=18ft,2016-10-25 19:15,Not ranked,WALNUT R AT ARKANSAS CITY, KS 07146800: Flow=22cfs,Stage=5.87ft,Floodstage=21ft,2016-10-25 20:00,Not ranked,WB WALNUT R NR EL DORADO, KS 07145600: Flow=1040cfs,Stage=8.08ft,Floodstage=17ft,2016-10-25 19:45,Not ranked,ARKANSAS R ON HWY 160 AT OXFORD, KS 07144795: Flow=0.43cfs,Stage=1.23ft,2015-11-12 10:00,Not ranked,NF NINNESCAH R AT CHENEY DAM, KS 07144790: Stage=1421.90ft,2016-10-25 19:00,Not ranked,CHENEY RE NR CHENEY, KS 07144570: Flow=597cfs,Stage=6.70ft,Floodstage=16.5ft,2016-10-25 19:15,Not ranked,ARKANSAS R AT MULVANE, KS 07144490: Flow=8.2cfs,Stage=7.44ft,2016-10-25 19:15,Not ranked,COWSKIN C AT KELLOGG ST, WICHITA, KS 07144486: Flow=0.50cfs,Stage=4.85ft,2016-10-25 20:00,Not ranked,CALFSKIN C AT 119TH ST, WICHITA, KS 07144480: Flow=6.0cfs,Stage=7.42ft,Floodstage=18ft,2016-10-25 19:30,Not ranked,COWSKIN C AT 119TH ST AT WICHITA, KS 07144470: Stage=10.97ft,2016-10-25 19:15,Not ranked,COWSKIN C AT 29TH ST NORTH OF WICHITA, KS 07144301: Flow=0.00cfs,Stage=6.49ft,2016-10-25 19:45,Not ranked,FLOODWAY AT ARKANSAS R AT WICHITA, KS 07144201: Flow=32cfs,2016-09-28 00:15,Not ranked,FLOODWAY AT L ARKANSAS R AT VALLEY CENTER, KS 07144100: Flow=68cfs,Stage=3.26ft,Floodstage=22ft,2016-10-25 19:15,Not ranked,L ARKANSAS R NR SEDGWICK, KS 07144050: Flow=12cfs,Stage=-0.64ft,Floodstage=19ft,2016-10-25 19:15,Not ranked,EMMA C AT SEDGWICK, KS 07143672: Flow=30cfs,Stage=5.97ft,Floodstage=25ft,2016-10-25 19:30,Not ranked,L ARKANSAS R AT HWY 50 NR HALSTEAD, KS 07143375: Flow=298cfs,Stage=5.31ft,2016-10-25 19:15,Not ranked,ARKANSAS R NR MAIZE, KS 07143310: Stage=1.86ft,Floodstage=9.5ft,2016-10-25 19:15,Not ranked,COW C NR HUTCHINSON, KS 07142680: Flow=109cfs,Stage=8.81ft,2016-10-25 19:00,Not ranked,ARKANSAS R NR NICKERSON, KS 07142019: Flow=3.7cfs,Stage=2.14ft,2016-10-25 20:00,Not ranked,CHEYENNE BOTTOMS DV NR GREAT BEND, KS 07141900: Flow=0.00cfs,Stage=2.18ft,Floodstage=24ft,2016-10-25 19:45,Not ranked,WALNUT C AT ALBERT, KS 07141780: Flow=0.00cfs,Stage=5.83ft,Floodstage=29ft,2016-10-25 19:15,Not ranked,WALNUT C AT NEKOMA, KS 07141220: Flow=0.73cfs,Stage=4.01ft,2016-10-25 20:00,Not ranked,ARKANSAS R NR LARNED, KS 07141200: Flow=0.00cfs,Stage=5.79ft,Floodstage=31ft,2016-10-25 19:30,Not ranked,PAWNEE R AT ROZEL, KS 07141000: Flow=0.00cfs,Stage=3.61ft,2016-10-25 19:45,Not ranked,BUCKNER C AT HANSTON, KS 07140900: Flow=0.82cfs,Stage=2.50ft,2016-10-25 19:15,Not ranked,BUCKNER C NR JETMORE, KS 07140890: Flow=1.8cfs,Stage=3.05ft,2016-10-25 19:45,Not ranked,BUCKNER C BL HORSETHIEF RE NR JETMORE, KS 07140880: Flow=1.5cfs,Stage=3.86ft,2016-10-25 19:15,Not ranked,BUCKNER C AB HORSETHIEF RE NR JETMORE, KS 07140850: Flow=0.00cfs,Stage=2.26ft,Floodstage=30ft,2016-10-25 19:00,Not ranked,PAWNEE R NR BURDETT, KS 07139500: Stage=6.00ft,Floodstage=11ft,2016-10-25 19:00,Not ranked,ARKANSAS R AT DODGE CITY, KS 07139000: Flow=0.00cfs,Stage=5.22ft,Floodstage=10ft,2016-10-25 19:30,Not ranked,ARKANSAS R AT GARDEN CITY, KS 07138075: Flow=24cfs,Stage=2.71ft,2016-10-25 19:00,Not ranked,FARMERS DITCH NR DEERFIELD, KS 07138070: Flow=45cfs,Stage=6.95ft,Floodstage=14ft,2016-10-25 19:45,Not ranked,ARKANSAS R AT DEERFIELD, KS 07138064: Flow=0.00cfs,Stage=3.23ft,2016-10-25 19:15,Not ranked,SOUTHSIDE DITCH RETURN NR DEERFIELD, KS 07138063: Flow=3.0cfs,2016-10-08 10:00,Stage=1.27ft,2016-10-25 19:00:00,Not ranked,SOUTHSIDE DITCH NR LAKIN, KS 07138050: Stage=3.28ft,2016-10-25 19:00:00,Not ranked,Equipment malfunction,AMAZON GREAT EASTERN DITCH NR LAKIN, KS 07138020: Flow=97cfs,Stage=6.05ft,2016-10-25 19:45,Not ranked,ARKANSAS R AT KENDALL, KS 07137010: Flow=0.00cfs,Stage=2.02ft,2016-10-25 19:45,Not ranked,FRONTIER DITCH RETURN NR COOLIDGE, KS 07134990: Flow=12cfs,Stage=3.19ft,2016-10-25 18:15,Not ranked,WILD HORSE CREEK ABOVE HOLLY, CO 06917630: Flow=0.57cfs,Stage=1.71ft,2016-10-25 18:15,Not ranked,East Drywood Creek at Prairie State Park 06917560: Flow=54cfs,Stage=2.70ft,Floodstage=25ft,2016-10-25 19:15,Not ranked,Marmaton River near Richards, MO 06917380: Flow=194cfs,2008-11-12 23:45,Not ranked,MARMATON R NR MARMATON, KS 06917240: Flow=22cfs,Stage=0.30ft,2016-10-25 20:00,Not ranked,MARMATON R NR UNIONTOWN, KS 06914995: Stage=917.41ft,2016-10-25 19:30,Not ranked,HILLSDALE LK NR HILLSDALE, KS 06914990: Flow=1.1cfs,Stage=3.22ft,2016-10-25 19:30,Not ranked,L BULL C NR SPRING HILL, KS 06914950: Flow=1.3cfs,Stage=2.28ft,2016-10-25 19:00,Not ranked,BIG BULL C NR EDGERTON, KS 06914500: Flow=64cfs,Stage=5.85ft,Floodstage=23ft,2016-10-25 19:30,Not ranked,POTTAWATOMIE C AT LANE, KS 06914100: Flow=29cfs,Stage=3.50ft,Floodstage=23ft,2016-10-25 19:45,Not ranked,POTTAWATOMIE C NR SCIPIO, KS 06912490: Stage=976.42ft,2016-10-25 19:45,Not ranked,POMONA LK NR QUENEMO, KS 06911490: Flow=5.1cfs,Stage=0.73ft,Floodstage=10ft,2016-10-25 19:30,Not ranked,SALT C AT LYNDON, KS 06910997: Stage=1037.32ft,2016-10-25 19:30,Not ranked,MELVERN LK NR MELVERN, KS 06893562: Stage=4.53ft,2016-10-25 19:45,Not ranked,Brush Creek at Rockhill Road in Kansas City, MO 06893557: Flow=7.3cfs,Stage=35.76ft,Floodstage=47ft,2016-10-25 19:15,Not ranked,Brush Creek at Ward Parkway in Kansas City, MO 06893400: Stage=82.99ft,2016-10-25 19:30,Not ranked,Indian Creek at 103rd St in Kansas City, MO 06893390: Flow=20cfs,Stage=10.19ft,Floodstage=20ft,2016-10-25 19:30,Not ranked,INDIAN C AT STATE LINE RD, LEAWOOD, KS 06893350: Flow=2.4cfs,Stage=1.98ft,2016-10-25 19:15,Not ranked,TOMAHAWK C NR OVERLAND PARK, KS 06893150: Flow=17cfs,Stage=24.83ft,Floodstage=35ft,2016-10-25 20:00,Not ranked,Blue River at Blue Ridge Blvd Ext in KC, MO 06893100: Flow=7.1cfs,Stage=5.13ft,2016-10-25 19:30,Not ranked,BLUE R AT KENNETH RD, OVERLAND PARK, KS 06892950: Stage=11.50ft,Floodstage=33ft,2016-10-25 19:45,Not ranked,KANSAS R AT KANSAS CITY, KS 06892518: Flow=2610cfs,Stage=10.47ft,2016-10-25 19:45,Not ranked,KANSAS R NR LAKE QUIVIRA, KS 06892513: Flow=11cfs,Stage=48.64ft,2016-10-25 19:30,Not ranked,MILL C AT JOHNSON DRIVE, SHAWNEE, KS 06892495: Flow=11cfs,Stage=57.32ft,2016-10-25 19:45,Not ranked,CEDAR C NR DESOTO, KS 06892494: Stage=3.28ft,2016-10-25 20:00,Not ranked,CAMP C AT 95TH ST NR DESOTO, KS 06892493: Stage=76.73ft,2016-10-25 20:00,Not ranked,CEDAR C AT 95TH ST NR DESOTO, KS 06892360: Flow=5.0cfs,Stage=5.16ft,2016-10-25 19:30,Not ranked,KILL C AT 95TH ST NR DESOTO, KS 06891850: Flow=38cfs,Stage=2.58ft,Floodstage=17ft,2016-10-25 19:30,Not ranked,STRANGER C AT EASTON, KS 06891810: Flow=199cfs,2015-06-09 23:45,Not ranked,STRANGER C NR POTTER, KS 06891478: Stage=877.26ft,2016-10-25 19:00,Not ranked,CLINTON LK NR LAWRENCE, KS 06891260: Flow=9.4cfs,Stage=3.79ft,2016-10-25 19:30,Not ranked,WAKARUSA R NR RICHLAND, KS 06891200: Stage=3.19ft,Floodstage=15ft,2016-10-25 19:15,Not ranked,WAKARUSA R AT WAKARUSA, KS 06891080: Flow=2360cfs,2016-10-25 19:45,Stage=13.72ft,2016-10-25 19:50:00,Floodstage=18ft,Not ranked,KANSAS R AT LAWRENCE, KS 06890898: Stage=894.01ft,2016-10-25 19:30,Not ranked,PERRY LK NR PERRY, KS 06889630: Flow=9.3cfs,Stage=4.67ft,Floodstage=24ft,2016-10-25 19:15,Not ranked,SHUNGANUNGA C AT TOPEKA, KS 06889585: Stage=4.91ft,Floodstage=15ft,2016-10-25 19:15,Not ranked,SHUNGANUNGA C AT GAGE BLVD, TOPEKA, KS 06888990: Flow=2180cfs,Stage=5.65ft,2016-10-25 19:30,Not ranked,KANSAS R AT TOPEKA WATER PLANT, KS 06888700: Stage=7.45ft,Floodstage=25ft,2016-10-25 19:30,Not ranked,CROSS C AT ROSSVILLE, KS 06888300: Flow=52cfs,Stage=8.89ft,Floodstage=27ft,2016-10-25 19:00,Not ranked,ROCK C NR LOUISVILLE, KS 06887500: Flow=1690cfs,Stage=4.31ft,Floodstage=19ft,2016-10-25 19:30,Not ranked,KANSAS R AT WAMEGO, KS 06886900: Stage=1079.42ft,2016-10-25 19:00,Not ranked,TUTTLE C LK NR MANHATTAN, KS 06886850: Stage=5.53ft,2016-10-25 19:45,Not ranked,MILL C NR RILEY, KS 06886500: Flow=41cfs,Stage=1.26ft,Floodstage=16ft,2016-10-25 19:15,Not ranked,FANCY C AT WINKLER, KS 06884700: Stage=15.19ft,Floodstage=26ft,2016-10-25 19:15,Not ranked,BIG BLUE R AT BLUE RAPIDS, KS 06879820: Stage=6.35ft,Floodstage=18ft,2016-10-25 19:00,Not ranked,KANSAS R AT MANHATTAN, KS 06879815: Stage=2.56ft,2016-10-25 20:00,Not ranked,WILDCAT C AT SETH CHILDS RD, MANHATTAN, KS 06879810: Flow=6.8cfs,Stage=2.65ft,Floodstage=14ft,2016-10-25 19:15,Not ranked,WILDCAT C AT SCENIC DRIVE, MANHATTAN, KS 06879805: Stage=7.24ft,2016-10-25 19:00,Not ranked,WILDCAT C AT KEATS, KS 06879650: Flow=0.00cfs,Stage=2.12ft,2016-10-25 19:45,Not ranked,KINGS C NR MANHATTAN, KS 06878600: Flow=39cfs,Stage=5.82ft,Floodstage=21ft,2016-10-25 19:15,Not ranked,LYON C NR JUNCTION CITY, KS 06876440: Flow=117cfs,Stage=2.70ft,Floodstage=26ft,2016-10-25 19:15,Not ranked,SOLOMON R NR MINNEAPOLIS, KS 06876070: Stage=7.56ft,2016-10-25 19:15,Not ranked,SOLOMON R NR SIMPSON, KS 06870300: Flow=9.6cfs,Stage=20.00ft,2016-10-25 19:15,Not ranked,GYPSUM C NR GYPSUM, KS 06870200: Stage=6.15ft,Floodstage=27ft,2016-10-25 19:45,Not ranked,SMOKY HILL R AT NEW CAMBRIA, KS 06869950: Flow=2.8cfs,Stage=2.74ft,Floodstage=24ft,2016-10-25 19:00,Not ranked,MULBERRY C NR SALINA, KS 06868850: Flow=34cfs,Stage=11.11ft,Floodstage=30ft,2016-10-25 19:45,Not ranked,SALINE R AT LINCOLN, KS 06868100: Stage=1517.14ft,2016-10-25 19:30,Not ranked,WILSON LK NR WILSON, KS 06867500: Flow=5.4cfs,Stage=9.21ft,2016-10-25 19:30,Not ranked,PARADISE C NR PARADISE, KS 06865000: Stage=1465.94ft,2016-10-25 19:30,Not ranked,KANOPOLIS LK NR KANOPOLIS, KS 06864050: Flow=58cfs,2011-06-08 23:45,Not ranked,SMOKY HILL R NR BUNKER HILL, KS 06863420: Flow=0.40cfs,Stage=1.52ft,2016-10-25 19:15,Not ranked,BIG C NR ELLIS, KS 06863000: Flow=0.00cfs,Stage=0.91ft,2016-10-25 20:00,Not ranked,SMOKY HILL R AT PFEIFER, KS 06862850: Flow=0.00cfs,Stage=1.93ft,Floodstage=11ft,2016-10-25 19:00,Not ranked,SMOKY HILL R BL SCHOENCHEN, KS 06861500: Stage=2119.14ft,2016-10-25 19:15,Not ranked,CEDAR BLUFF RE NR ELLIS, KS 06860900: Flow=0.00cfs,Stage=6.97ft,2016-10-25 19:30,Not ranked,HACKBERRY C NR TREGO CENTER, KS 06860000: Flow=0.00cfs,Stage=3.64ft,Floodstage=9ft,2016-10-25 19:30,Not ranked,SMOKY HILL R AT ELKADER, KS 06857050: Stage=1146.62ft,2016-10-25 19:30,Not ranked,MILFORD LK NR JUNCTION CITY, KS 06855850: Flow=11cfs,Stage=4.10ft,2016-10-25 19:15,Not ranked,BUFFALO C 4 MI E OF JAMESTOWN, KS 06854000: Stage=0.05ft,2016-10-25 19:45,Not ranked,WHITE ROCK C AT LOVEWELL, KS 06853020: Flow=62cfs,Stage=3.91ft,Floodstage=11ft,2016-10-25 19:30,Not ranked,Republican River at Guide Rock, Nebr. 06852500: Not ranked,Seasonal site,Courtland Canal at Nebraska-Kansas Stateline 06848500: Flow=0.00cfs,Stage=1.04ft,Floodstage=21ft,2016-10-25 19:30,Not ranked,PRAIRIE DOG C NR WOODRUFF, KS 06846500: Flow=0.00cfs,Stage=2.76ft,Floodstage=16ft,2016-10-25 19:00,Not ranked,BEAVER C AT CEDAR BLUFFS, KS 06845110: Flow=0.00cfs,Stage=4.52ft,Floodstage=17ft,2016-10-25 19:30,Not ranked,SAPPA C NR LYLE, KS 06827500: Flow=0.00cfs,Stage=-0.66ft,Floodstage=9ft,2016-10-25 18:30,Not ranked,South Fork Republican River near Benkelman, Nebr. 06827000: Flow=3.1cfs,Stage=3.14ft,2016-10-25 19:45,Not ranked,SF REPUBLICAN R NR CO-KS ST LINE, KS 06820475: Stage=5.51ft,2016-10-25 19:00,Not ranked,MISSOURI R AT LEAVENWORTH, KS 06818300: Stage=10.65ft,Floodstage=22ft,2016-10-25 20:00,Not ranked,MISSOURI R AT ATCHISON, KS Go to WaterWatch (offsite) for a larger map with additional options
USGS Home Water Resources Biology Geography Geology Geospatial

Accessibility FOIA Privacy Policies and Notices

Take Pride in America logo logo U.S. Department of the Interior | U.S. Geological Survey
Page Contact Information:
Page Last Modified: 2016-10-17 15:03:22 CDT